EST,Max TemperatureF,Mean TemperatureF,Min TemperatureF,Max Dew PointF,MeanDew PointF,Min DewpointF,Max Humidity, Mean Humidity, Min Humidity, Max Sea Level PressureIn, Mean Sea Level PressureIn, Min Sea Level PressureIn, Max VisibilityMiles, Mean VisibilityMiles, Min VisibilityMiles, Max Wind SpeedMPH, Mean Wind SpeedMPH, Max Gust SpeedMPH,PrecipitationIn, CloudCover, Events, WindDirDegrees
2013-12-1,45,34,24,33,29,21,100,77,57,30.10,30.03,29.97,10,8,3,12,3,,0.00,5,,337
2013-12-2,39,32,21,31,25,18,88,74,48,29.99,29.94,29.90,10,10,7,9,4,,0.00,5,,24
2013-12-3,37,32,26,36,31,21,93,86,75,29.92,29.88,29.84,10,6,2,9,5,,0.06,8,Rain-Snow,92
2013-12-4,57,47,37,54,43,35,96,88,82,29.91,29.80,29.64,10,5,2,13,4,26,0.00,8,,134
2013-12-5,63,46,30,54,37,21,88,63,37,30.16,29.84,29.62,10,10,9,21,13,31,0.00,5,,260
2013-12-6,46,34,21,20,15,11,68,51,32,30.37,30.26,30.13,10,10,10,12,8,,0.00,6,,314
2013-12-7,26,19,9,11,8,5,84,65,46,30.63,30.55,30.38,10,10,10,14,7,23,0.00,1,,295
2013-12-8,28,19,10,27,17,6,93,80,65,30.59,30.26,29.96,10,6,1,12,6,,0.00,6,Snow,88
2013-12-9,28,24,18,27,21,10,93,81,63,30.12,29.99,29.88,10,7,1,22,10,29,0.02,7,Snow,228
2013-12-10,21,14,8,12,7,1,80,67,48,30.21,30.10,29.99,10,10,10,23,11,29,0.00,5,,255
2013-12-11,24,14,5,18,12,-2,86,75,60,30.48,30.28,30.20,10,6,1,13,9,21,0.00,7,Snow,262
2013-12-12,21,7,-4,13,3,-7,87,71,47,30.47,30.36,30.21,10,9,2,17,6,,0.00,5,Snow,235
2013-12-13,28,24,19,19,17,14,80,72,64,30.27,30.21,30.14,10,10,8,14,7,21,0.00,7,,207
2013-12-14,21,20,19,18,16,13,93,85,71,30.27,30.03,29.79,10,2,0,16,11,23,0.10,8,Fog-Snow,52
2013-12-15,24,20,15,20,15,7,93,80,62,30.05,29.86,29.79,10,6,1,22,11,31,0.00,8,Snow,268
2013-12-16,19,7,-5,14,6,-9,92,81,59,30.19,30.08,29.97,10,6,1,8,4,,0.05,4,Snow,195
2013-12-17,26,19,12,21,17,8,92,85,79,30.02,29.94,29.86,10,6,1,15,6,22,0.01,7,Snow,237
2013-12-18,28,24,19,23,18,13,93,78,61,30.13,30.04,29.92,10,8,2,21,6,24,0.00,5,Snow,233
2013-12-19,39,29,19,33,25,13,89,77,68,29.99,29.94,29.88,10,10,5,8,4,,0.00,3,,215
2013-12-20,41,37,33,41,36,34,100,96,93,29.89,29.79,29.71,5,2,0,13,4,140,0.29,8,Fog-Rain-Snow,112
2013-12-21,37,35,33,37,33,31,100,95,92,29.86,29.78,29.65,9,4,0,14,5,20,0.67,8,Fog-Rain,3
2013-12-22,37,35,33,35,32,30,100,91,83,29.96,29.72,29.54,10,7,2,18,8,26,0.23,8,Rain-Snow,269
2013-12-23,33,27,19,30,22,11,93,76,59,30.32,30.18,29.95,10,9,2,16,9,24,0.00,8,Snow,275
2013-12-24,19,14,7,9,7,3,84,72,54,30.56,30.42,30.30,10,8,2,14,10,20,0.00,5,Snow,289
2013-12-25,25,15,6,22,15,2,88,81,68,30.51,30.30,30.11,10,6,1,15,7,21,0.00,7,Snow,192
2013-12-26,28,26,24,23,21,15,93,81,63,30.30,30.12,30.02,10,5,1,18,9,24,0.02,8,Snow,232
2013-12-27,39,32,26,30,27,21,85,78,70,30.32,30.23,30.09,10,10,9,15,5,37,0.00,4,,214
2013-12-28,46,38,30,34,31,27,88,74,59,30.14,30.04,29.91,10,10,7,15,10,24,0.00,0,,220
2013-12-29,44,34,23,32,26,16,93,78,58,30.01,29.82,29.70,10,9,2,20,10,28,0.00,5,Rain-Snow,296
2013-12-30,21,18,16,14,8,2,74,61,52,30.28,30.18,30.03,10,10,6,13,8,21,0.00,8,Snow,301
2013-12-31,19,16,14,16,11,7,88,76,62,30.34,30.17,30.03,10,5,1,18,10,25,0.01,8,Snow,264